DW0265 Weather Reports


time (UTC)temp
C
wind
direction
speed
KPH
gust
KPH
rain 1hr
cm
rain 24hr
cm
rain mn
cm
humidity
%
barometer
mb
20260506083505 10 349 3.2 19.3 0.00 0.00 0.00 73 1013.5
20260506040504 8 344 1.6 8.0 0.00 0.00 0.00 78 1012.8
20260506040004 8 323 1.6 8.0 0.00 0.00 0.00 77 1012.7
20260506030505 10 350 3.2 8.0 0.00 0.00 0.00 78 1012.8
20260506030005 10 333 3.2 12.9 0.00 0.00 0.00 78 1012.7
20260506023005 10 338 1.6 9.7 0.00 0.00 0.00 78 1012.8
20260506013505 10 33 1.6 4.8 0.00 0.00 0.00 75 1013.0
20260506003006 11 50 0.0 11.3 0.00 0.00 0.00 73 1013.2
20260505230005 11 35 0.0 19.3 0.00 0.00 0.00 75 1013.2
20260505220505 12 26 0.0 0.0 0.00 0.00 0.00 70 1013.1
20260505203505 13 73 0.0 0.0 0.00 0.00 0.00 69 1012.5
20260505200505 13 320 0.0 0.0 0.00 0.00 0.00 70 1012.2
20260505190005 13 320 0.0 0.0 0.00 0.00 0.00 66 1011.8
20260505183004 14 320 0.0 0.0 0.00 0.00 0.00 68 1011.5
20260505180005 14 320 0.0 0.0 0.00 0.00 0.00 68 1011.6
20260505173005 15 340 0.0 4.8 0.00 0.00 0.00 63 1011.6
20260505170505 15 14 0.0 0.0 0.00 0.00 0.00 63 1011.6
20260505170005 15 14 0.0 0.0 0.00 0.00 0.00 63 1011.6
20260505153006 16 342 1.6 8.0 0.00 0.00 0.00 59 1011.8
20260505123005 16 44 0.0 8.0 0.00 0.00 0.00 56 1012.4
20260505113505 16 61 1.6 4.8 0.00 0.00 0.00 59 1012.5
20260505113004 16 9 1.6 19.3 0.00 0.00 0.00 57 1012.6
20260505110505 15 54 4.8 14.5 0.00 0.00 0.00 62 1012.7
20260505100504 14 328 6.4 12.9 0.00 0.00 0.00 72 1013.1
20260505100004 14 0 0.0 14.5 0.00 0.00 0.00 72 1013.1